Stations météo

Publicité
Ouessant, France (7100): Température de l'air & dewpoint: 17.01.2017 05:00:00 - 23.01.2017 05:00:00 (CET)Ouessant, France (7100): Vitesse du vent & gusts: 17.01.2017 05:00:00 - 23.01.2017 05:00:00 (CET)Ouessant, France (7100): Direction du vent: 17.01.2017 05:00:00 - 23.01.2017 05:00:00 (CET)Ouessant, France (7100): reduced air pressure: 17.01.2017 05:00:00 - 23.01.2017 05:00:00 (CET)Ouessant, France (7100): visibility: 17.01.2017 05:00:00 - 23.01.2017 05:00:00 (CET)Ouessant, France (7100): Quantités de précipitations: 17.01.2017 05:00:00 - 23.01.2017 05:00:00 (CET)
Date & Time tt [°C] td [°C] ff [km/h] ff [knt] fx [km/h] fx [knt] dd ppp [hPa] vv [km] rr [mm]
23.01.2017 05:00:00 5,8 1,5 9 5 19 11 SSE 1026,4 - 0,0
23.01.2017 04:00:00 6,2 1,7 11 6 18 10 SE 1026,5 15 0,0
23.01.2017 03:00:00 6,7 3,5 13 7 23 12 SE 1026,5 - 0,0
23.01.2017 02:00:00 7,4 4,0 18 10 22 12 E 1026,5 - 0,0
23.01.2017 01:00:00 7,3 3,3 15 8 21 11 ENE 1026,5 15 0,0
23.01.2017 00:00:00 7,4 3,3 10 6 19 10 ENE 1026,3 - 0,0
22.01.2017 23:00:00 7,0 3,4 15 8 21 12 E 1026,2 - 0,0
22.01.2017 22:00:00 7,1 3,3 12 7 21 12 E 1025,9 20 0,0
22.01.2017 21:00:00 7,5 4,1 16 9 22 12 E 1025,8 - 0,0
22.01.2017 20:00:00 7,5 2,0 13 7 - - ENE 1025,5 - 0,0
22.01.2017 19:00:00 7,2 2,5 9 5 11 6 ENE 1025,0 20 0,0
22.01.2017 18:00:00 7,8 2,9 7 4 10 5 NNE 1024,5 - 0,0
22.01.2017 17:00:00 9,7 3,6 2 1 - - NE 1024,2 - 0,0
22.01.2017 16:00:00 10,4 4,1 5 3 11 6 E 1023,8 12 0,0
22.01.2017 15:00:00 9,9 4,1 5 3 17 9 SSE 1023,7 - 0,0
22.01.2017 14:00:00 9,9 4,7 8 5 17 9 SSE 1024,1 - 0,0
22.01.2017 13:00:00 9,4 4,8 10 5 21 11 SSE 1024,6 - 0,0
22.01.2017 12:00:00 8,8 4,6 11 6 23 12 SSE 1024,9 - 0,0
22.01.2017 11:00:00 8,0 4,8 13 7 26 14 SSE 1024,6 - 0,0
22.01.2017 10:00:00 6,6 4,4 14 8 24 13 SE 1024,1 10 0,0
22.01.2017 09:00:00 5,3 3,6 9 5 16 9 SSE 1023,5 - 0,0
22.01.2017 08:00:00 5,1 3,3 9 5 24 13 S 1022,9 - 0,0
22.01.2017 07:00:00 6,0 3,3 14 8 29 16 SSE 1022,8 18 0,0
22.01.2017 06:00:00 6,0 2,3 18 10 33 18 SSE 1022,7 - 0,0
22.01.2017 05:00:00 5,8 1,9 20 11 34 19 SE 1022,9 - 0,0
22.01.2017 04:00:00 6,1 1,6 18 10 34 18 SE 1022,9 15 0,0
22.01.2017 03:00:00 6,4 0,7 18 10 41 22 SSE 1023,0 - 0,0
22.01.2017 02:00:00 6,5 2,4 20 11 37 20 SSE 1023,4 - 0,0
22.01.2017 01:00:00 6,4 2,8 25 13 37 20 SE 1023,4 - 0,0
22.01.2017 00:00:00 5,9 2,9 24 13 40 22 SE 1023,7 - 0,0
21.01.2017 23:00:00 5,6 2,8 26 14 35 19 SE 1023,8 - 0,0
21.01.2017 22:00:00 6,0 3,0 27 15 39 21 SE 1023,6 10 0,0
21.01.2017 21:00:00 6,2 2,6 28 15 38 20 SE 1023,7 - 0,0
21.01.2017 20:00:00 5,8 2,1 19 11 32 17 SE 1023,7 - 0,0
21.01.2017 19:00:00 5,8 2,1 20 11 30 16 SE 1023,5 6 0,0
21.01.2017 18:00:00 5,8 2,4 18 10 26 14 SE 1023,3 - 0,0
21.01.2017 17:00:00 6,7 2,6 15 8 27 14 SE 1023,0 - 0,0
21.01.2017 16:00:00 6,5 2,8 19 11 37 20 SE 1023,2 7 0,0
21.01.2017 15:00:00 6,7 3,7 23 12 39 21 SE 1023,5 - 0,0
21.01.2017 14:00:00 6,0 4,0 22 12 33 18 SE 1024,0 - 0,0
21.01.2017 13:00:00 5,9 4,2 19 10 30 16 SE 1024,8 6 0,0
21.01.2017 12:00:00 5,8 4,0 15 8 25 14 SE 1025,3 - 0,0
21.01.2017 11:00:00 5,5 3,8 14 8 25 14 SE 1025,3 - 0,0
21.01.2017 10:00:00 4,7 3,8 16 9 32 17 SE 1025,1 6 0,0
21.01.2017 09:00:00 4,0 3,3 19 11 29 16 SE 1024,9 - 0,0
21.01.2017 08:00:00 3,5 2,6 19 10 30 16 SE 1024,9 - 0,0
21.01.2017 07:00:00 3,1 1,9 19 10 29 15 SE 1025,0 6 0,0
21.01.2017 06:00:00 3,4 1,4 19 10 29 16 SE 1025,4 - 0,0
21.01.2017 05:00:00 3,4 1,0 18 10 30 16 SE 1025,8 - 0,0
21.01.2017 04:00:00 3,5 0,7 18 10 37 20 SE 1025,9 6 0,0
21.01.2017 03:00:00 3,0 0,4 25 14 37 20 SE 1026,2 - 0,0
21.01.2017 02:00:00 2,9 0,5 23 13 45 24 SE 1026,6 - 0,0
21.01.2017 01:00:00 3,1 -1,3 11 6 29 15 S 1026,6 8 0,0
21.01.2017 00:00:00 2,5 -2,0 14 7 30 16 SSE 1026,6 - 0,0
20.01.2017 23:00:00 2,5 -2,0 15 8 31 17 SSE 1026,6 - 0,0
20.01.2017 22:00:00 2,6 -1,8 19 10 35 19 SE 1026,9 15 0,0
20.01.2017 21:00:00 2,5 -2,4 16 8 37 20 SE 1027,0 - 0,0
20.01.2017 20:00:00 3,4 -1,4 25 14 38 20 ESE 1026,7 - 0,0
20.01.2017 19:00:00 3,5 -0,2 24 13 34 18 E 1026,5 12 0,0
20.01.2017 18:00:00 3,5 -0,3 24 13 34 19 E 1026,8 - 0,0
20.01.2017 17:00:00 4,3 -1,7 19 11 28 15 E 1026,7 - 0,0
20.01.2017 16:00:00 4,5 -2,2 13 7 24 13 E 1026,9 10 0,0
20.01.2017 15:00:00 4,3 -1,3 10 6 24 13 ESE 1027,3 - 0,0
20.01.2017 14:00:00 4,0 -1,6 16 8 33 18 ESE 1028,3 - 0,0
20.01.2017 13:00:00 3,2 -1,6 26 14 42 23 ESE 1029,2 10 0,0
20.01.2017 12:00:00 2,6 -1,0 33 18 50 27 ESE 1029,7 - 0,0
20.01.2017 11:00:00 2,3 -0,8 36 19 49 26 ESE 1030,0 - 0,0
20.01.2017 10:00:00 1,3 -2,1 35 19 51 27 ESE 1029,8 10 0,0
20.01.2017 09:00:00 0,7 -2,2 33 18 46 25 ESE 1029,7 - 0,0
20.01.2017 08:00:00 0,7 -2,2 27 15 39 21 ESE 1029,5 - 0,0
20.01.2017 07:00:00 0,4 -2,8 24 13 33 18 E 1029,7 15 0,0
20.01.2017 06:00:00 0,6 -2,8 21 12 35 19 ESE 1029,8 - 0,0
20.01.2017 05:00:00 0,7 -2,7 23 12 35 19 ESE 1030,1 - 0,0
20.01.2017 04:00:00 0,8 -3,3 25 13 41 22 SE 1030,5 25 0,0
20.01.2017 03:00:00 1,0 -2,9 26 14 49 26 SE 1030,6 - 0,0
20.01.2017 02:00:00 1,4 -3,3 33 18 52 28 SE 1030,7 - 0,0
20.01.2017 01:00:00 2,0 -2,9 36 19 50 27 SE 1030,8 25 0,0
20.01.2017 00:00:00 2,7 -1,7 31 17 48 26 SE 1031,0 - 0,0
19.01.2017 23:00:00 3,5 -1,1 35 19 61 33 ESE 1031,1 - 0,0
19.01.2017 22:00:00 4,2 -1,2 47 26 69 37 ESE 1030,9 25 0,0
19.01.2017 21:00:00 5,2 0,4 51 28 69 38 E 1030,3 - 0,0
19.01.2017 20:00:00 6,0 0,5 54 29 69 37 E 1029,8 - 0,0
19.01.2017 19:00:00 6,9 0,6 46 25 69 37 E 1029,4 25 0,0
19.01.2017 18:00:00 7,1 0,1 52 28 81 44 E 1029,3 - 0,0
19.01.2017 17:00:00 8,0 0,0 58 31 76 41 E 1029,4 - 0,0
19.01.2017 16:00:00 8,4 0,4 54 29 73 39 ENE 1029,5 - 0,0
19.01.2017 15:00:00 8,5 -0,3 52 28 74 40 ENE 1029,8 - 0,0
19.01.2017 14:00:00 8,6 -1,5 48 26 71 38 ENE 1030,4 - 0,0
19.01.2017 13:00:00 8,5 -0,3 47 25 66 36 ENE 1031,4 25 0,0
19.01.2017 12:00:00 8,4 1,3 36 20 50 27 ENE 1032,1 - 0,0
19.01.2017 11:00:00 7,8 0,7 38 20 49 26 E 1032,8 - 0,0
19.01.2017 10:00:00 7,1 0,7 39 21 50 27 E 1032,6 25 0,0
19.01.2017 09:00:00 6,3 0,4 36 20 53 29 E 1032,6 - 0,0
19.01.2017 08:00:00 6,4 0,9 37 20 51 28 E 1032,3 - 0,0
19.01.2017 07:00:00 6,4 0,5 41 22 54 29 E 1032,3 25 0,0
19.01.2017 06:00:00 6,4 0,5 39 21 53 29 E 1032,5 - 0,0
19.01.2017 05:00:00 6,0 1,5 42 23 56 31 E 1032,7 - 0,0
19.01.2017 04:00:00 6,1 0,6 45 25 57 31 E 1032,7 25 0,0
19.01.2017 03:00:00 6,4 0,5 45 24 57 31 E 1032,8 - 0,0
19.01.2017 02:00:00 6,4 0,7 37 20 52 28 E 1033,1 - 0,0
19.01.2017 01:00:00 6,5 0,6 38 20 56 31 E 1033,4 25 0,0
19.01.2017 00:00:00 6,7 0,6 44 24 57 31 E 1033,7 - 0,0
18.01.2017 23:00:00 7,0 0,2 45 24 67 36 E 1033,8 - 0,0
18.01.2017 22:00:00 7,0 -0,2 44 24 64 35 ENE 1033,6 25 0,0
18.01.2017 21:00:00 7,0 0,6 42 23 61 33 ENE 1033,8 - 0,0
18.01.2017 20:00:00 6,6 1,1 39 21 55 30 ENE 1033,9 - 0,0
18.01.2017 19:00:00 6,2 0,5 40 22 59 32 E 1034,0 25 0,0
18.01.2017 18:00:00 6,1 -1,1 39 21 61 33 ENE 1033,8 - 0,0
18.01.2017 17:00:00 6,5 -2,2 42 23 58 31 ENE 1033,9 - 0,0
18.01.2017 16:00:00 6,5 -0,9 35 19 51 27 ENE 1034,1 25 0,0
18.01.2017 15:00:00 6,6 -1,3 31 17 46 25 ENE 1034,1 - 0,0
18.01.2017 14:00:00 6,3 -3,4 30 16 47 26 E 1034,9 - 0,0
18.01.2017 13:00:00 6,0 -2,6 34 19 45 25 E 1035,6 25 0,0
18.01.2017 12:00:00 5,3 -1,8 33 18 55 30 E 1035,9 - 0,0
18.01.2017 11:00:00 5,0 -1,5 40 22 50 27 E 1035,8 - 0,0
18.01.2017 10:00:00 4,7 0,3 39 21 54 29 E 1035,4 25 0,0
18.01.2017 09:00:00 4,5 -0,9 37 20 47 26 E 1035,3 - 0,0
18.01.2017 08:00:00 4,7 -0,7 37 20 46 25 E 1034,8 - 0,0
18.01.2017 07:00:00 5,0 -2,8 39 21 49 27 E 1034,4 20 0,0
18.01.2017 06:00:00 5,1 -2,7 37 20 44 24 E 1034,7 - 0,0
18.01.2017 05:00:00 4,8 -1,7 34 18 47 26 E 1034,8 - 0,0
18.01.2017 04:00:00 4,9 -0,9 31 17 40 22 E 1035,2 20 0,0
18.01.2017 03:00:00 5,0 -3,8 27 14 36 20 E 1035,2 - 0,0
18.01.2017 02:00:00 4,4 -1,0 26 14 32 17 E 1035,2 - 0,0
18.01.2017 01:00:00 4,8 -1,0 25 13 34 18 ESE 1035,3 20 0,0
18.01.2017 00:00:00 5,0 -1,3 21 12 32 17 ESE 1035,2 - 0,0
17.01.2017 23:00:00 5,2 -0,4 22 12 39 21 ESE 1035,1 - 0,0
17.01.2017 22:00:00 5,5 0,1 29 15 36 20 ESE 1035,1 20 0,0
17.01.2017 21:00:00 6,0 1,1 21 11 40 22 SE 1034,9 - 0,0
17.01.2017 20:00:00 5,9 0,6 30 16 36 19 E 1034,7 - 0,0
17.01.2017 19:00:00 6,0 0,3 16 8 31 17 E 1034,4 20 0,0
17.01.2017 18:00:00 6,8 1,1 25 13 33 18 E 1034,1 - 0,0
17.01.2017 17:00:00 7,4 1,9 9 5 19 11 SE 1033,9 - 0,0
17.01.2017 16:00:00 8,2 1,8 13 7 29 16 SE 1033,8 25 0,0
17.01.2017 15:00:00 8,5 2,1 19 10 46 25 SE 1033,8 - 0,0
17.01.2017 14:00:00 8,4 5,0 22 12 36 19 SE 1033,6 - 0,0
17.01.2017 13:00:00 8,9 5,6 24 13 39 21 SE 1033,5 15 0,0
17.01.2017 12:00:00 8,3 6,1 24 13 43 23 ESE 1033,9 - 0,0
17.01.2017 11:00:00 8,0 6,0 31 17 56 30 SE 1033,2 - 0,0
17.01.2017 10:00:00 9,2 5,4 32 17 37 20 E 1032,4 10 0,0
17.01.2017 09:00:00 9,1 5,5 23 12 37 20 ESE 1031,8 - 0,0
17.01.2017 08:00:00 9,3 6,2 28 15 37 20 ESE 1031,3 - 0,0
17.01.2017 07:00:00 9,3 7,4 27 15 35 19 E 1030,8 - 0,0
17.01.2017 06:00:00 9,4 8,8 22 12 36 19 ESE 1030,2 - 0,2
17.01.2017 05:00:00 9,8 9,0 22 12 32 18 NNE 1030,1 - 0,0

tt = Température de l'air
td = dewpoint
ff = Vitesse du vent
fx = gusts
dd = Direction du vent
ppp = reduced air pressure
vv = visibility
rr = Quantités de précipitations

stations d'obs. à proximité